Retour au catalogue

USA 40 R/B DEB

LostUNKNOWN
NORAD 23388·DEBRIS·🇺🇸 United States

Lancé Aug 8, 1989 depuis Cape Canaveral Space Force Station

Loading…

Prochains Passages (prochaines 24 heures)

TLE

PériméSource: Space-Track

Époque: Jun 30, 2026, 02:40 UTC

1 23388U 89061BL  26181.11152036  .00007881  00000-0  40365-2 0  9999
2 23388  56.9966 347.3131 2261144 259.5248  74.4991 10.35351723 84796

Suivez USA 40 R/B DEB en temps réel avec AllMySat

Download on the App Store